When you browse on this site, cookies collect data to enhance your experience and personalize the content and advertising you see.
Visit our Privacy Policy to learn more. By continuing to use the site, you agree to this use of cookies and data.
  • In Austria
  • List of Countries
  • For 7 days
  • Water Temperature
  • Weather Map
  • News
  • Weather Widgets
  • user-avatar
    Login

    Hourly Weather Gedzhon

    Today, 26 May, Tuesday

    Time Temperature Precipitation Wind Pressure Humidity
    00:00 +13°C° 0 mm 0 mps 743 mmHg 88%
    01:00 +12°C° 0 mm 0 mps 743 mmHg 88%
    02:00 +12°C° 0 mm 0 mps 742 mmHg 89%
    03:00 +12°C° 0 mm 0 mps 742 mmHg 88%
    04:00 +13°C° 0 mm 0 mps 742 mmHg 87%
    05:00 +13°C° 0 mm 0 mps 742 mmHg 87%
    06:00 +15°C° 0 mm 0 mps 742 mmHg 79%
    07:00 +17°C° 0 mm 0 mps 742 mmHg 72%
    08:00 +19°C° 0 mm 0 mps 742 mmHg 65%
    09:00 +22°C° 0 mm 1 mps 742 mmHg 58%
    10:00 +24°C° 0 mm 1 mps 742 mmHg 52%
    11:00 +25°C° 0 mm 2 mps 742 mmHg 45%
    12:00 +26°C° 0 mm 3 mps 741 mmHg 44%
    13:00 +26°C° 0 mm 3 mps 741 mmHg 42%
    14:00 +27°C° 0 mm 4 mps 740 mmHg 40%
    15:00 +25°C° 0 mm 4 mps 740 mmHg 48%
    16:00 +22°C° 0 mm 4 mps 740 mmHg 55%
    17:00 +20°C° 0 mm 3 mps 740 mmHg 62%
    18:00 +19°C° 0 mm 3 mps 740 mmHg 67%
    19:00 +18°C° 0 mm 2 mps 741 mmHg 72%
    20:00 +17°C° 0 mm 2 mps 741 mmHg 77%
    21:00 +16°C° 0.2 mm 2 mps 741 mmHg 82%
    22:00 +16°C° 0.2 mm 2 mps 741 mmHg 86%
    23:00 +16°C° 0.2 mm 2 mps 741 mmHg 91%

    Tomorrow, 27 May, Wednesday

    Time Temperature Precipitation Wind Pressure Humidity
    00:00 +16°C° 0.1 mm 2 mps 741 mmHg 92%
    01:00 +15°C° 0.1 mm 1 mps 741 mmHg 93%
    02:00 +15°C° 0.1 mm 1 mps 741 mmHg 95%
    03:00 +15°C° 0 mm 1 mps 741 mmHg 95%
    04:00 +14°C° 0 mm 1 mps 741 mmHg 96%
    05:00 +13°C° 0 mm 0 mps 742 mmHg 96%
    06:00 +15°C° 0 mm 1 mps 742 mmHg 84%
    07:00 +18°C° 0 mm 1 mps 742 mmHg 73%
    08:00 +20°C° 0 mm 1 mps 743 mmHg 61%
    09:00 +21°C° 0 mm 2 mps 743 mmHg 54%
    10:00 +23°C° 0 mm 2 mps 742 mmHg 47%
    11:00 +25°C° 0 mm 3 mps 742 mmHg 41%
    12:00 +25°C° 0 mm 3 mps 742 mmHg 39%
    13:00 +25°C° 0 mm 3 mps 742 mmHg 38%
    14:00 +26°C° 0 mm 3 mps 741 mmHg 37%
    15:00 +25°C° 0 mm 3 mps 741 mmHg 41%
    16:00 +24°C° 0 mm 3 mps 741 mmHg 46%
    17:00 +22°C° 0 mm 3 mps 741 mmHg 51%
    18:00 +19°C° 0 mm 2 mps 741 mmHg 60%
    19:00 +16°C° 0 mm 1 mps 742 mmHg 69%
    20:00 +13°C° 0 mm 0 mps 742 mmHg 79%
    21:00 +12°C° 0 mm 0 mps 742 mmHg 81%
    22:00 +12°C° 0 mm 0 mps 742 mmHg 83%
    23:00 +11°C° 0 mm 0 mps 742 mmHg 85%

    Day after tomorrow, 28 May, Thursday

    Time Temperature Precipitation Wind Pressure Humidity
    00:00 +11°C° 0 mm 0 mps 742 mmHg 86%
    01:00 +11°C° 0 mm 0 mps 742 mmHg 87%
    02:00 +10°C° 0 mm 0 mps 741 mmHg 88%
    03:00 +10°C° 0 mm 0 mps 742 mmHg 86%
    04:00 +11°C° 0 mm 0 mps 742 mmHg 85%
    05:00 +11°C° 0 mm 0 mps 742 mmHg 84%
    06:00 +14°C° 0 mm 0 mps 742 mmHg 71%
    07:00 +17°C° 0 mm 0 mps 742 mmHg 59%
    08:00 +21°C° 0 mm 0 mps 742 mmHg 47%
    09:00 +24°C° 0 mm 1 mps 742 mmHg 42%
    10:00 +25°C° 0 mm 2 mps 742 mmHg 38%
    11:00 +26°C° 0 mm 3 mps 742 mmHg 34%
    12:00 +26°C° 0 mm 3 mps 742 mmHg 36%
    13:00 +26°C° 0 mm 4 mps 742 mmHg 38%
    14:00 +26°C° 0 mm 4 mps 741 mmHg 40%
    15:00 +25°C° 0 mm 4 mps 741 mmHg 48%
    16:00 +22°C° 0 mm 4 mps 741 mmHg 55%
    17:00 +21°C° 0 mm 4 mps 741 mmHg 63%
    18:00 +19°C° 0 mm 3 mps 742 mmHg 73%
    19:00 +18°C° 0 mm 1 mps 742 mmHg 83%
    20:00 +14°C° 0 mm 0 mps 743 mmHg 93%
    21:00 +13°C° 0 mm 0 mps 743 mmHg 94%
    22:00 +13°C° 0 mm 0 mps 743 mmHg 94%
    23:00 +13°C° 0 mm 0 mps 744 mmHg 95%

    29 May, Friday

    Time Temperature Precipitation Wind Pressure Humidity
    00:00 +12°C° 0 mm 0 mps 744 mmHg 95%
    01:00 +12°C° 0 mm 0 mps 744 mmHg 95%
    02:00 +12°C° 0 mm 0 mps 744 mmHg 96%
    03:00 +12°C° 0 mm 0 mps 744 mmHg 96%
    04:00 +12°C° 0 mm 0 mps 744 mmHg 96%
    05:00 +12°C° 0 mm 0 mps 745 mmHg 96%
    06:00 +15°C° 0 mm 0 mps 745 mmHg 85%
    07:00 +20°C° 0 mm 1 mps 746 mmHg 74%
    08:00 +23°C° 0 mm 1 mps 746 mmHg 63%
    09:00 +24°C° 0 mm 1 mps 746 mmHg 55%
    10:00 +26°C° 0 mm 1 mps 746 mmHg 47%
    11:00 +28°C° 0 mm 1 mps 746 mmHg 39%
    12:00 +29°C° 0 mm 1 mps 746 mmHg 37%
    13:00 +29°C° 0 mm 1 mps 746 mmHg 34%
    14:00 +30°C° 0 mm 1 mps 745 mmHg 32%
    15:00 +29°C° 0 mm 1 mps 745 mmHg 37%
    16:00 +28°C° 0 mm 1 mps 745 mmHg 42%
    17:00 +27°C° 0 mm 1 mps 745 mmHg 47%
    18:00 +25°C° 0 mm 1 mps 746 mmHg 52%
    19:00 +22°C° 0 mm 1 mps 746 mmHg 57%
    20:00 +20°C° 0 mm 1 mps 747 mmHg 62%
    21:00 +20°C° 0 mm 1 mps 747 mmHg 66%
    22:00 +19°C° 0 mm 1 mps 747 mmHg 70%
    23:00 +18°C° 0 mm 1 mps 747 mmHg 74%

    30 May, Saturday

    Time Temperature Precipitation Wind Pressure Humidity
    00:00 +18°C° 0 mm 1 mps 747 mmHg 76%
    01:00 +16°C° 0 mm 1 mps 748 mmHg 78%
    02:00 +15°C° 0 mm 0 mps 748 mmHg 79%
    03:00 +16°C° 0 mm 1 mps 748 mmHg 79%
    04:00 +16°C° 0 mm 1 mps 748 mmHg 79%
    05:00 +16°C° 0 mm 1 mps 748 mmHg 78%
    06:00 +19°C° 0 mm 1 mps 748 mmHg 71%
    07:00 +21°C° 0 mm 1 mps 748 mmHg 64%
    08:00 +23°C° 0 mm 1 mps 748 mmHg 57%
    09:00 +25°C° 0 mm 1 mps 748 mmHg 49%
    10:00 +27°C° 0 mm 1 mps 748 mmHg 41%
    11:00 +29°C° 0 mm 1 mps 748 mmHg 33%
    12:00 +30°C° 0 mm 2 mps 747 mmHg 30%
    13:00 +30°C° 0 mm 2 mps 747 mmHg 28%
    14:00 +31°C° 0 mm 2 mps 747 mmHg 25%
    15:00 +29°C° 0 mm 2 mps 747 mmHg 32%
    16:00 +28°C° 0 mm 2 mps 747 mmHg 39%
    17:00 +26°C° 0 mm 2 mps 747 mmHg 46%
    18:00 +23°C° 0 mm 2 mps 747 mmHg 54%
    19:00 +20°C° 0 mm 2 mps 747 mmHg 62%
    20:00 +18°C° 0 mm 1 mps 747 mmHg 71%
    21:00 +18°C° 0 mm 1 mps 748 mmHg 70%
    22:00 +19°C° 0 mm 1 mps 748 mmHg 70%
    23:00 +17°C° 0 mm 0 mps 748 mmHg 69%

    31 May, Sunday

    Time Temperature Precipitation Wind Pressure Humidity
    00:00 +16°C° 0.3 mm 0 mps 748 mmHg 76%
    01:00 +18°C° 0.3 mm 1 mps 748 mmHg 82%
    02:00 +16°C° 0.3 mm 1 mps 748 mmHg 89%
    03:00 +16°C° 0.1 mm 1 mps 748 mmHg 90%
    04:00 +16°C° 0.1 mm 1 mps 748 mmHg 91%
    05:00 +16°C° 0.1 mm 1 mps 748 mmHg 92%
    06:00 +16°C° 0.2 mm 1 mps 748 mmHg 93%
    07:00 +16°C° 0.2 mm 1 mps 748 mmHg 93%
    08:00 +16°C° 0.2 mm 1 mps 748 mmHg 93%
    09:00 +18°C° 0 mm 1 mps 748 mmHg 92%
    10:00 +18°C° 0 mm 1 mps 747 mmHg 91%
    11:00 +18°C° 0 mm 2 mps 747 mmHg 89%
    12:00 +19°C° 0 mm 2 mps 747 mmHg 86%
    13:00 +20°C° 0 mm 2 mps 746 mmHg 83%
    14:00 +21°C° 0 mm 1 mps 746 mmHg 80%
    15:00 +21°C° 0 mm 1 mps 746 mmHg 82%
    16:00 +21°C° 0 mm 1 mps 745 mmHg 84%
    17:00 +20°C° 0 mm 1 mps 745 mmHg 87%
    18:00 +20°C° 0.3 mm 1 mps 745 mmHg 89%
    19:00 +19°C° 0.3 mm 1 mps 744 mmHg 91%
    20:00 +19°C° 0.3 mm 1 mps 744 mmHg 92%
    21:00 +19°C° 0.1 mm 1 mps 744 mmHg 93%
    22:00 +19°C° 0.1 mm 1 mps 744 mmHg 93%
    23:00 +19°C° 0.1 mm 1 mps 743 mmHg 94%
    Show more